Torna al catalogo

FENGYUN 1C DEB

AttivoSSO
NORAD 30087·DEBRIS·🇨🇳 China

Lanciato May 10, 1999 da Taiyuan Satellite Launch Center

Loading…

Prossimi Passaggi (prossime 24 ore)

TLE

AggiornatoSource: Space-Track

Epoca: Sep 14, 2026, 08:17 UTC

1 30087U 99025QQ  26257.34543519  .00000676  00000-0  18488-3 0  9990
2 30087  98.3522 286.7463 0228225  17.8375 354.9087 14.36224140 26491

Traccia FENGYUN 1C DEB in tempo reale con AllMySat

Download on the App Store